User: anonymous   Login
Location: ?ejkovice
(49.0137°N, 14.3821°E)
Time: 07:40:47
(UTC+00:00)
Language:

Cosmos 968 Rocket - Orbit

View from above orbital plane
View from above orbital plane
View from above satellite
View from above satellite

Ground track
Ground track

The orbit data is extracted from the following two-line orbital elements,

1 10521U 77119B   24196.95762976  .00000565  00000-0  18135-3 0  9994
2 10521  74.0262 161.5945 0022107 264.4049  95.4585 14.41602540444234
Epoch (UTC): 14 July 2024 22:58:59
Eccentricity: 0.0022107
inclination: 74.0262°
perigee height: 737 km
apogee height: 769 km
right ascension of ascending node: 161.5945°
argument of perigee: 264.4049°
revolutions per day: 14.41602540
mean anomaly at epoch: 95.4585°
orbit number at epoch: 44423

The dashed part of the orbit path shows where the satellite is in the earth's shadow,  

DLR